Hourly Weather Rutkowskie

Today, 22 April, Thursday

Time Temperature Precipitation Wind Pressure Humidity
00:00 +7°C° 0 mm 2 mps 745 mmHg 84%
01:00 +6°C° 0 mm 2 mps 745 mmHg 88%
02:00 +6°C° 0.1 mm 2 mps 746 mmHg 90%
03:00 +4°C° 0.1 mm 3 mps 746 mmHg 91%
04:00 +4°C° 0.1 mm 3 mps 746 mmHg 92%
05:00 +4°C° 0.3 mm 3 mps 746 mmHg 89%
06:00 +4°C° 0.3 mm 3 mps 746 mmHg 86%
07:00 +4°C° 0.3 mm 4 mps 747 mmHg 83%
08:00 +5°C° 0 mm 5 mps 747 mmHg 74%
09:00 +6°C° 0 mm 5 mps 747 mmHg 65%
10:00 +7°C° 0 mm 6 mps 747 mmHg 56%
11:00 +6°C° 0.1 mm 7 mps 747 mmHg 54%
12:00 +8°C° 0.1 mm 7 mps 747 mmHg 53%
13:00 +7°C° 0.1 mm 8 mps 747 mmHg 51%
14:00 +7°C° 0.1 mm 8 mps 747 mmHg 53%
15:00 +8°C° 0.1 mm 7 mps 747 mmHg 55%
16:00 +6°C° 0.1 mm 7 mps 747 mmHg 57%
17:00 +5°C° 0.1 mm 6 mps 748 mmHg 62%
18:00 +3°C° 0.1 mm 5 mps 748 mmHg 68%
19:00 +3°C° 0.1 mm 3 mps 748 mmHg 73%
20:00 +1°C° 0 mm 4 mps 748 mmHg 75%
21:00 +1°C° 0 mm 4 mps 748 mmHg 77%
22:00 0°C° 0 mm 4 mps 749 mmHg 79%
23:00 0°C° 0 mm 4 mps 749 mmHg 79%

Tomorrow, 23 April, Friday

Time Temperature Precipitation Wind Pressure Humidity
00:00 0°C° 0 mm 4 mps 749 mmHg 80%
01:00 -1°C° 0 mm 4 mps 749 mmHg 80%
02:00 -1°C° 0 mm 5 mps 749 mmHg 81%
03:00 -1°C° 0 mm 5 mps 749 mmHg 82%
04:00 -1°C° 0 mm 5 mps 749 mmHg 84%
05:00 0°C° 0 mm 5 mps 750 mmHg 80%
06:00 +1°C° 0 mm 5 mps 750 mmHg 76%
07:00 +2°C° 0 mm 5 mps 750 mmHg 72%
08:00 +3°C° 0.2 mm 6 mps 750 mmHg 63%
09:00 +4°C° 0.2 mm 6 mps 750 mmHg 55%
10:00 +6°C° 0.2 mm 7 mps 750 mmHg 46%
11:00 +6°C° 0.2 mm 7 mps 751 mmHg 48%
12:00 +7°C° 0.2 mm 6 mps 751 mmHg 50%
13:00 +7°C° 0.2 mm 6 mps 751 mmHg 51%
14:00 +5°C° 0.2 mm 6 mps 751 mmHg 52%
15:00 +6°C° 0.2 mm 5 mps 751 mmHg 53%
16:00 +6°C° 0.2 mm 5 mps 751 mmHg 54%
17:00 +5°C° 0.1 mm 5 mps 751 mmHg 56%
18:00 +2°C° 0.1 mm 5 mps 752 mmHg 57%
19:00 +1°C° 0.1 mm 4 mps 752 mmHg 59%
20:00 0°C° 0 mm 4 mps 752 mmHg 66%
21:00 0°C° 0 mm 3 mps 752 mmHg 72%
22:00 -1°C° 0 mm 3 mps 753 mmHg 79%
23:00 -2°C° 0 mm 3 mps 753 mmHg 81%

Day after tomorrow, 24 April, Saturday

Time Temperature Precipitation Wind Pressure Humidity
00:00 -2°C° 0 mm 3 mps 753 mmHg 83%
01:00 -2°C° 0 mm 3 mps 753 mmHg 85%
02:00 -2°C° 0 mm 3 mps 753 mmHg 84%
03:00 -2°C° 0 mm 3 mps 753 mmHg 83%
04:00 -2°C° 0 mm 3 mps 753 mmHg 82%
05:00 -2°C° 0 mm 4 mps 753 mmHg 72%
06:00 0°C° 0 mm 4 mps 753 mmHg 63%
07:00 +2°C° 0 mm 5 mps 753 mmHg 54%
08:00 +3°C° 0 mm 5 mps 753 mmHg 48%
09:00 +5°C° 0 mm 6 mps 753 mmHg 43%
10:00 +6°C° 0 mm 7 mps 753 mmHg 37%
11:00 +6°C° 0 mm 7 mps 753 mmHg 39%
12:00 +6°C° 0 mm 7 mps 753 mmHg 42%
13:00 +5°C° 0 mm 7 mps 753 mmHg 44%
14:00 +5°C° 0.1 mm 7 mps 753 mmHg 47%
15:00 +5°C° 0.1 mm 7 mps 753 mmHg 50%
16:00 +4°C° 0.1 mm 6 mps 753 mmHg 53%
17:00 +3°C° 0 mm 5 mps 753 mmHg 57%
18:00 +3°C° 0 mm 4 mps 753 mmHg 60%
19:00 +1°C° 0 mm 3 mps 753 mmHg 64%
20:00 0°C° 0 mm 3 mps 753 mmHg 67%
21:00 -1°C° 0 mm 3 mps 753 mmHg 71%
22:00 -2°C° 0 mm 3 mps 753 mmHg 75%
23:00 -2°C° 0 mm 3 mps 753 mmHg 77%

25 April, Sunday

Time Temperature Precipitation Wind Pressure Humidity
00:00 -4°C° 0 mm 3 mps 753 mmHg 79%
01:00 -4°C° 0 mm 3 mps 753 mmHg 81%
02:00 -4°C° 0 mm 3 mps 753 mmHg 82%
03:00 -4°C° 0 mm 3 mps 753 mmHg 83%
04:00 -4°C° 0 mm 3 mps 753 mmHg 84%
05:00 -1°C° 0 mm 3 mps 753 mmHg 76%
06:00 -1°C° 0 mm 4 mps 753 mmHg 69%
07:00 +1°C° 0 mm 4 mps 753 mmHg 62%
08:00 +3°C° 0.1 mm 4 mps 753 mmHg 57%
09:00 +3°C° 0.1 mm 5 mps 752 mmHg 51%
10:00 +5°C° 0.1 mm 5 mps 752 mmHg 46%
11:00 +5°C° 0.2 mm 6 mps 752 mmHg 46%
12:00 +5°C° 0.2 mm 6 mps 752 mmHg 46%
13:00 +5°C° 0.2 mm 6 mps 751 mmHg 46%
14:00 +5°C° 0.2 mm 6 mps 751 mmHg 50%
15:00 +4°C° 0.2 mm 6 mps 751 mmHg 53%
16:00 +4°C° 0.2 mm 6 mps 751 mmHg 57%
17:00 +2°C° 0 mm 5 mps 752 mmHg 62%
18:00 +1°C° 0 mm 4 mps 752 mmHg 67%
19:00 0°C° 0 mm 3 mps 752 mmHg 73%
20:00 -1°C° 0 mm 3 mps 752 mmHg 76%
21:00 -2°C° 0 mm 3 mps 752 mmHg 78%
22:00 -2°C° 0 mm 3 mps 752 mmHg 81%
23:00 -2°C° 0 mm 3 mps 752 mmHg 82%

26 April, Monday

Time Temperature Precipitation Wind Pressure Humidity
00:00 -2°C° 0 mm 3 mps 752 mmHg 83%
01:00 -2°C° 0 mm 3 mps 752 mmHg 84%
02:00 -4°C° 0 mm 3 mps 751 mmHg 84%
03:00 -4°C° 0 mm 3 mps 751 mmHg 83%
04:00 -4°C° 0 mm 3 mps 751 mmHg 82%
05:00 -1°C° 0 mm 3 mps 750 mmHg 75%
06:00 -1°C° 0 mm 4 mps 750 mmHg 68%
07:00 0°C° 0 mm 4 mps 750 mmHg 61%
08:00 +1°C° 0 mm 5 mps 750 mmHg 61%
09:00 +2°C° 0 mm 6 mps 750 mmHg 60%
10:00 +3°C° 0 mm 6 mps 750 mmHg 60%
11:00 +4°C° 0.3 mm 6 mps 749 mmHg 60%
12:00 +4°C° 0.3 mm 6 mps 749 mmHg 60%
13:00 +5°C° 0.3 mm 6 mps 749 mmHg 60%
14:00 +5°C° 0.2 mm 6 mps 749 mmHg 60%
15:00 +5°C° 0.2 mm 6 mps 749 mmHg 61%
16:00 +5°C° 0.2 mm 6 mps 750 mmHg 62%
17:00 +3°C° 0 mm 5 mps 750 mmHg 69%
18:00 +1°C° 0 mm 4 mps 750 mmHg 76%
19:00 +1°C° 0 mm 3 mps 750 mmHg 83%
20:00 0°C° 0 mm 3 mps 751 mmHg 87%
21:00 -1°C° 0 mm 3 mps 751 mmHg 90%
22:00 -1°C° 0 mm 2 mps 751 mmHg 93%
23:00 -2°C° 0 mm 2 mps 751 mmHg 93%

27 April, Tuesday

Time Temperature Precipitation Wind Pressure Humidity
00:00 -2°C° 0 mm 2 mps 751 mmHg 94%
01:00 -2°C° 0 mm 2 mps 751 mmHg 95%
02:00 -2°C° 0 mm 2 mps 751 mmHg 95%
03:00 -2°C° 0 mm 2 mps 751 mmHg 95%
04:00 -2°C° 0 mm 2 mps 751 mmHg 95%
05:00 -1°C° 0 mm 2 mps 751 mmHg 91%
06:00 +1°C° 0 mm 2 mps 751 mmHg 87%
07:00 +3°C° 0 mm 2 mps 751 mmHg 83%
08:00 +5°C° 0 mm 1 mps 751 mmHg 80%
09:00 +6°C° 0 mm 1 mps 751 mmHg 77%
10:00 +7°C° 0 mm 1 mps 751 mmHg 74%
11:00 +8°C° 0 mm 1 mps 751 mmHg 69%
12:00 +7°C° 0 mm 0 mps 750 mmHg 65%
13:00 +8°C° 0 mm 0 mps 750 mmHg 61%
14:00 +8°C° 0 mm 0 mps 750 mmHg 60%
15:00 +9°C° 0 mm 1 mps 749 mmHg 59%
16:00 +9°C° 0 mm 1 mps 749 mmHg 58%
17:00 +9°C° 0 mm 1 mps 749 mmHg 61%
18:00 +7°C° 0 mm 2 mps 749 mmHg 64%
19:00 +6°C° 0 mm 2 mps 749 mmHg 67%
20:00 +5°C° 0 mm 2 mps 748 mmHg 71%
21:00 +4°C° 0 mm 2 mps 748 mmHg 75%
22:00 +2°C° 0 mm 3 mps 748 mmHg 79%
23:00 +1°C° 0 mm 3 mps 748 mmHg 81%
Show more